Regional Weather Roundup
Issued by NWS

Home | Current Version | Previous Version | Text Only | Print | Product List | Glossary On
Versions: 1 2 3 4 5 6 7 8 9 10 11 12 13 14 15 16 17 18 19 20 21 22 23 24 25 26 27 28 29 30 31 32 33 34 35 36 37 38 39 40 41 42 43 44 45 46 47 48 49 50
000
ASUS44 KOUN 302100
RWROK

WEATHER ROUNDUP FOR OKLAHOMA
NATIONAL WEATHER SERVICE NORMAN OK
400 PM CDT SAT JUL 30 2016

NOTE: "FAIR" INDICATES FEW OR NO CLOUDS BELOW 12,000 FEET WITH NO
      SIGNIFICANT WEATHER AND/OR OBSTRUCTIONS TO VISIBILITY.

OKZ001>007-009>012-014-015-017-302200-
NORTHWEST OKLAHOMA AND THE PANHANDLE

CITY           SKY/WX    TMP DP  RH WIND       PRES   REMARKS
GAGE           SUNNY     94  63  35 SE16      29.94F HX  95
GUYMON         SUNNY     95  62  33 S22       29.93F HX  96
ENID/WOODRING  MOSUNNY   90  73  58 S12G17    29.93F HX  98
$$

OKZ016-021>023-033>039-044-045-302200-
SOUTHWEST OKLAHOMA

CITY           SKY/WX    TMP DP  RH WIND       PRES   REMARKS
LAWTON/REGL    CLOUDY   100  61  27 VRB3      29.90F HX 101
FREDERICK        N/A    N/A N/A N/A MISG      29.88F
CLINTON        MOSUNNY   94  66  39 S16       29.97F HX  97
HOBART         CLOUDY    94  69  44 VRB5      29.94F HX  99
$$

OKZ018>020-024>031-302200-
CENTRAL OKLAHOMA

CITY           SKY/WX    TMP DP  RH WIND       PRES   REMARKS
OKLAHOMA CITY  MOSUNNY   90  74  59 VRB3      29.95F HX  99
OKC/WILEY POST SUNNY     90  74  59 S7        29.95F HX  99
GUTHRIE        SUNNY     86  72  62 S7        29.95F HX  92
$$

OKZ008-013-054>072-302200-
NORTHEAST OKLAHOMA

CITY           SKY/WX    TMP DP  RH WIND       PRES   REMARKS
TULSA          PTSUNNY   82  72  71 VRB5      29.93F
TULSA/JONES    MOSUNNY   84  71  65 S7        29.94F
PONCA CITY     SUNNY     88  70  55 S7        29.94S HX  93
BARTLESVILLE   MOSUNNY   85  71  63 E9        29.95S HX  90
MUSKOGEE       PTSUNNY   86  69  56 E8        29.94F HX  90
$$

OKZ032-040>043-046>053-073>077-302200-
SOUTH CENTRAL/SOUTHEAST OKLAHOMA

CITY           SKY/WX    TMP DP  RH WIND       PRES   REMARKS
ARDMORE/DWNTWN CLOUDY    95  61  31 S9        29.91F HX  95
MCALESTER      SUNNY     94  74  52 VRB3      29.94F HX 104
$$




USA.gov is the U.S. government's official web portal to all federal, state and local government web resources and services.